Weather History for West Palm Beach, FL

Change the Weather History Date:

Tuesday, December 13, 2011

  Actual Average Record
Temperature  
Mean Temperature 77 °F 68 °F  
Max Temperature 80 °F 77 °F 87 °F (1941)
Min Temperature 73 °F 61 °F 30 °F (1962)
Degree Days  
Heating Degree Days 0 2  
Month to date heating degree days 2 16  
Since 1 July heating degree days 3 28  
Cooling Degree Days 12 5  
Month to date cooling degree days 113 74  
Year to date cooling degree days 4683 3940  
Growing Degree Days 26 (Base 50)    
Moisture  
Dew Point 66 °F    
Average Humidity 76    
Maximum Humidity 93    
Minimum Humidity 58    
Precipitation  
Precipitation 0.01 in 0.11 in 2.17 in (1935)
Month to date precipitation 0.37 1.38  
Year to date precipitation 47.36 60.33  
Snow  
Snow 0.00 in - - ()
Month to date snowfall 0.0  
Since 1 July snowfall 0.0  
Snow Depth 0.00 in    
Sea Level Pressure  
Sea Level Pressure 30.18 in    
Wind  
Wind Speed 15 mph (NE)    
Max Wind Speed 22 mph    
Max Gust Speed 29 mph    
Visibility 10 miles    
Events Rain    
T = Trace of Precipitation, MM = Missing Value Source: NWS Daily Summary

Daily Weather History Graph

Daily Weather History Graph

Search for Another Location

Airport:

Trip Planner

Search our weather history database for the weather conditions in past years. The results will help you decide how hot, cold, wet, or windy it might be!

Date:

Astronomy

Dec. 13, 2011 Rise Set
Actual Time 6:59 AM EST 5:29 PM EST
Civil Twilight 6:34 AM EST 5:54 PM EST
Nautical Twilight 6:05 AM EST 6:23 PM EST
Astronomical Twilight 5:37 AM EST 6:51 PM EST
Moon 8:31 PM EST (12/13) 9:17 AM EST (12/13)
Length of Visible Light 11h 19m
Length of Day
10h 29m
Waning Gibbous, 90% of the Moon is Illuminated
Dec 13
Waning Gibbous
Dec 17
Last Quarter
Dec 24
New
Jan 1
First Quarter
Jan 9
Full

Hourly Weather History & Observations

Time (EST) Temp. Dew Point Humidity Pressure Visibility Wind Dir Wind Speed Gust Speed Precip Events Conditions
12:53 AM 73.9 °F 70.0 °F 87% 30.15 in 10.0 mi East 13.8 mph - 0.01 in   Mostly Cloudy
1:53 AM 73.0 °F 70.0 °F 90% 30.14 in 10.0 mi East 16.1 mph 24.2 mph N/A   Mostly Cloudy
2:53 AM 73.9 °F 69.1 °F 85% 30.13 in 10.0 mi East 18.4 mph 24.2 mph N/A   Mostly Cloudy
3:53 AM 73.0 °F 69.1 °F 87% 30.14 in 10.0 mi ENE 15.0 mph 23.0 mph 0.00 in Rain Light Rain
4:53 AM 73.9 °F 68.0 °F 82% 30.14 in 10.0 mi ENE 12.7 mph - 0.00 in   Overcast
5:53 AM 73.9 °F 68.0 °F 82% 30.15 in 10.0 mi ENE 11.5 mph 23.0 mph N/A   Mostly Cloudy
6:53 AM 73.9 °F 68.0 °F 82% 30.17 in 10.0 mi ENE 9.2 mph - N/A   Mostly Cloudy
7:53 AM 75.0 °F 68.0 °F 79% 30.19 in 10.0 mi ENE 10.4 mph - N/A   Mostly Cloudy
8:53 AM 75.9 °F 64.9 °F 69% 30.21 in 10.0 mi NE 16.1 mph 21.9 mph N/A   Mostly Cloudy
9:53 AM 77.0 °F 64.9 °F 66% 30.22 in 10.0 mi NE 13.8 mph 25.3 mph N/A   Scattered Clouds
10:53 AM 75.9 °F 66.0 °F 71% 30.23 in 10.0 mi NE 12.7 mph 26.5 mph 0.00 in Rain Light Rain
11:53 AM 79.0 °F 62.1 °F 56% 30.22 in 10.0 mi NE 17.3 mph 25.3 mph 0.00 in   Mostly Cloudy
12:53 PM 78.1 °F 64.9 °F 64% 30.19 in 10.0 mi NE 19.6 mph - N/A   Scattered Clouds
1:53 PM 78.1 °F 66.9 °F 68% 30.16 in 10.0 mi NE 20.7 mph 26.5 mph 0.00 in Rain Light Rain
2:35 PM 75.2 °F 64.4 °F 69% 30.16 in 10.0 mi NE 17.3 mph 26.5 mph 0.00 in   Mostly Cloudy
2:50 PM 78.8 °F 66.2 °F 65% 30.16 in 10.0 mi NE 18.4 mph - 0.00 in   Mostly Cloudy
2:53 PM 78.1 °F 66.0 °F 66% 30.16 in 10.0 mi NE 19.6 mph 26.5 mph 0.00 in   Mostly Cloudy
3:53 PM 77.0 °F 64.9 °F 66% 30.16 in 10.0 mi NE 15.0 mph - N/A   Scattered Clouds
4:53 PM 75.0 °F 61.0 °F 62% 30.17 in 10.0 mi NE 16.1 mph 23.0 mph N/A   Scattered Clouds
5:53 PM 73.9 °F 62.1 °F 66% 30.17 in 10.0 mi NE 19.6 mph 25.3 mph N/A   Scattered Clouds
6:53 PM 73.9 °F 64.0 °F 71% 30.19 in 10.0 mi NE 15.0 mph - N/A   Scattered Clouds
7:53 PM 73.9 °F 63.0 °F 68% 30.20 in 10.0 mi NE 15.0 mph 24.2 mph N/A   Scattered Clouds
8:53 PM 73.9 °F 64.0 °F 71% 30.21 in 10.0 mi ENE 17.3 mph 25.3 mph N/A   Scattered Clouds
9:53 PM 73.9 °F 64.0 °F 71% 30.22 in 10.0 mi ENE 17.3 mph 24.2 mph N/A   Scattered Clouds
10:53 PM 73.9 °F 63.0 °F 68% 30.22 in 10.0 mi ENE 16.1 mph 23.0 mph N/A   Scattered Clouds
11:53 PM 73.9 °F 64.9 °F 73% 30.21 in 10.0 mi ENE 12.7 mph - N/A   Scattered Clouds